RH
90 90 90 90 90 90 89 85 82 76 72 66 66 70 71 71 66 54 52 58 59 64 48 26 32 41 39 21 26 21 25 27 29 24 24 26 31 32 44 71 92 97 69 48 60 66 66
92 92 92 92 91 92 89 86 78 73 68 65 66 71 71 69 64 30 33 43 44 58 31 17 40 37 23 25 20 20 23 26 25 24 22 23 26 25 32 37 53 83 94 85 55 75 61
93 92 92 92 93 93 92 87 79 75 76 67 65 68 68 65 54 20 12 47 41 36 29 16 41 30 14 20 21 18 21 23 24 25 26 25 22 23 27 37 37 59 83 66 89 77 84
93 94 93 92 93 93 91 87 85 81 77 73 68 66 59 58 61 18 15 32 21 30 23 15 18 17 16 17 19 21 21 25 28 31 30 28 28 26 27 24 34 58 77 82 53 76 72
95 94 94 93 93 93 92 90 89 70 60 61 65 66 48 29 28 22 21 24 22 18 17 12 11 17 17 17 20 20 25 28 31 34 33 32 33 31 29 49 56 56 82 75 51 54 53
96 94 92 94 93 93 91 91 88 61 40 25 52 64 56 20 16 18 25 20 28 27 10 12 10 13 14 22 20 20 26 29 33 33 40 38 43 43 36 52 76 64 92 76 52 39 51
96 96 86 61 59 87 92 90 88 37 22 20 21 36 48 35 17 20 36 31 25 28 20 16 17 16 18 21 17 21 25 28 28 30 44 43 65 74 66 52 60 54 67 79 63 66 73
96 95 92 56 47 61 77 82 78 48 16 16 15 15 18 38 20 24 35 39 52 56 33 14 13 15 18 20 20 22 25 36 36 43 41 46 72 57 54 51 50 54 64 60 49 50 99
95 94 88 48 34 52 52 63 56 38 16 13 13 12 16 23 22 30 44 55 68 59 31 13 14 20 20 16 21 25 25 34 38 45 47 60 71 54 72 63 64 63 69 58 53 96 86
94 94 71 36 26 28 34 41 50 38 14 13 12 12 14 20 32 30 36 52 66 65 27 15 16 18 18 17 22 20 24 36 42 53 62 60 53 70 74 85 75 68 42 43 49 60 91
70 92 85 35 19 23 20 26 30 22 15 13 11 12 16 20 27 22 34 53 66 49 25 14 18 17 18 21 22 24 22 30 57 49 64 59 84 78 73 83 83 70 72 74 51 66 72
70 65 75 26 22 22 20 23 24 15 12 12 12 12 18 28 27 38 38 55 47 22 35 25 18 27 23 18 20 20 21 27 34 44 39 46 48 72 80 61 80 92 87 75 71 71 88
66 52 67 46 18 16 20 22 17 12 12 12 10 12 21 30 30 39 27 30 15 19 13 18 30 29 20 24 24 22 30 48 65 73 64 44 61 54 52 57 70 93 92 85 94 94 74
39 23 34 44 17 13 17 16 16 12 11 13 10 11 25 27 35 37 36 12 22 24 26 26 32 26 20 26 29 22 25 38 44 60 61 68 75 65 50 84 92 91 92 92 70 80 72
33 33 26 40 23 13 12 11 11 12 11 12 10 20 18 18 17 25 16 22 36 42 38 43 30 29 20 24 26 22 27 32 45 56 86 85 57 42 44 57 60 81 91 93 89 66 76
27 27 22 35 24 12 11 10 11 12 10 12 22 17 20 10 16 19 17 31 43 40 42 38 37 38 37 32 34 32 29 28 45 42 42 63 80 40 46 41 49 66 66 91 87 69 68
26 31 30 24 21 13 11 10 10 11 10 11 26 12 22 11 17 16 28 36 40 37 43 47 43 46 35 42 49 44 36 30 43 46 39 54 78 52 37 75 88 72 73 72 90 89 90
23 30 34 32 22 16 12 11 11 12 10 17 24 12 13 12 14 15 23 37 48 35 41 44 49 47 55 52 54 47 44 40 39 43 59 46 72 69 54 52 50 63 81 75 85 80 70
24 29 38 39 30 21 14 12 12 14 14 35 15 15 19 24 15 18 28 29 36 35 35 40 44 46 46 66 72 58 46 38 39 51 70 67 57 59 59 52 44 62 70 75 80 79 73
26 28 38 45 39 28 18 14 14 14 14 33 21 20 19 23 27 24 30 24 27 41 44 46 50 39 46 46 42 71 50 40 40 54 56 51 55 65 67 69 64 69 67 72 67 68 74
30 29 37 46 49 41 23 19 16 15 14 36 32 38 40 23 21 26 40 37 26 33 44 43 42 37 61 84 54 46 44 50 44 57 56 65 56 55 42 42 44 48 63 66 82 74 74
36 30 37 45 53 51 28 28 21 19 17 38 43 50 55 36 38 27 34 42 28 34 46 37 55 41 69 80 55 68 75 68 75 68 62 60 62 49 43 28 36 51 46 59 69 72 66
45 36 34 43 53 58 39 47 55 33 29 40 54 61 65 54 36 31 26 40 42 43 38 40 51 67 83 70 55 52 52 53 58 75 77 79 72 66 39 29 36 47 63 68 70 68 80
49 46 36 40 49 59 54 60 82 67 49 57 62 51 92 62 43 37 50 41 33 37 58 54 68 74 56 52 47 58 63 64 62 63 59 87 84 74 56 32 37 44 37 48 67 71 70
51 50 47 38 45 56 63 64 89 81 69 69 76 64 92 82 46 44 45 44 49 61 69 65 53 53 52 51 56 53 44 44 43 46 69 82 80 61 50 41 32 46 48 64 77 61 71
58 62 53 45 41 54 66 68 71 92 82 80 78 73 85 92 79 56 44 50 48 41 56 48 47 57 57 55 43 50 28 37 41 36 50 72 81 77 47 53 38 51 54 54 64 68 63
89 89 68 58 46 54 68 72 74 85 90 88 86 76 81 98 76 49 53 60 65 66 58 53 59 62 60 41 41 37 32 53 55 66 53 48 56 51 33 56 35 57 52 56 66 66 60
98 99 90 76 67 54 64 76 80 82 95 94 92 82 86 100 81 61 52 68 72 68 61 80 74 74 55 55 50 42 46 52 57 41 56 55 55 35 42 55 44 59 58 60 70 68 62
100 100 99 92 69 69 65 73 86 84 95 98 99 93 93 96 91 78 67 65 59 60 65 84 77 61 59 64 67 65 65 61 52 48 42 62 48 58 56 36 46 54 50 65 68 73 64
Wind_Speed
18 18 19 19 20 19 19 19 20 21 21 22 23 22 19 14 13 11 10 11 6 13 18 29 16 13 8 8 10 26 27 20 17 19 15 14 15 14 15 5 11 14 24 28 19 22 10
18 18 19 19 19 19 19 19 19 21 22 24 25 22 19 14 12 7 8 11 12 7 15 34 15 9 8 7 24 22 20 19 22 24 21 18 15 16 17 17 12 12 17 22 23 14 19
18 19 20 20 19 19 18 18 18 19 22 25 26 23 18 13 11 5 8 11 9 7 11 35 11 7 12 14 25 23 22 23 29 27 22 25 23 18 10 13 10 12 18 18 13 13 11
18 19 20 20 20 20 19 18 18 20 23 24 26 24 17 13 12 3 4 7 17 10 9 17 16 10 6 26 27 24 33 33 25 19 19 19 17 17 18 16 17 13 13 12 16 15 16
17 18 19 20 21 21 21 19 19 20 24 25 25 23 18 14 14 15 5 8 6 14 14 3 33 7 15 32 28 30 32 28 21 15 10 9 7 11 12 13 11 9 11 15 20 19 23
17 18 19 20 21 22 22 21 20 19 22 29 27 24 19 12 17 16 6 12 5 6 14 1 23 5 25 25 25 36 36 16 15 12 2 5 4 8 10 10 10 9 8 9 13 20 20
16 17 19 20 21 21 22 22 21 19 21 24 29 26 20 7 19 14 4 1 5 5 15 12 11 12 20 29 22 34 40 15 16 7 7 2 5 2 12 10 7 12 12 14 16 13 11
17 17 18 20 21 22 22 22 23 20 20 23 28 29 24 5 15 11 9 4 5 4 1 11 12 15 26 25 20 30 43 12 12 13 13 4 8 10 10 11 12 11 12 17 17 8 4
17 18 19 20 22 22 23 23 23 21 19 21 26 29 21 3 9 12 13 8 5 2 5 8 15 16 22 23 14 27 30 13 13 15 11 11 14 13 9 12 11 13 12 13 15 5 1
17 18 18 20 22 23 23 24 24 23 17 17 25 28 19 5 2 8 4 8 3 3 4 17 15 11 22 21 14 26 31 6 10 11 12 7 16 13 15 3 5 12 11 16 12 8 3
17 18 19 20 22 23 24 24 24 23 17 13 20 24 20 16 4 5 8 5 2 2 7 19 9 7 25 17 14 22 31 8 10 12 5 11 18 13 16 7 6 5 15 12 13 10 6
18 19 20 21 22 23 24 25 25 23 18 12 13 22 18 9 5 9 7 2 2 2 5 8 11 17 23 21 15 13 24 23 3 5 13 9 8 3 14 13 1 9 8 8 10 7 7
18 19 20 21 22 24 25 26 26 24 20 11 8 18 17 10 9 14 3 3 2 8 12 14 12 20 17 22 15 21 26 26 19 12 16 11 18 10 23 11 5 10 7 5 6 7 3
19 21 21 21 23 25 26 27 27 25 22 10 6 11 11 11 15 9 4 0 9 3 6 10 14 18 13 19 12 19 16 21 21 20 11 12 8 21 18 6 9 14 5 4 4 5 7
19 21 22 22 24 25 27 28 29 28 24 11 4 3 9 20 20 10 4 8 4 4 7 11 17 7 12 18 13 14 18 20 15 20 12 10 7 16 17 5 14 6 3 4 5 2 5
19 22 24 24 24 26 27 29 30 30 25 10 2 1 9 19 17 6 7 6 1 3 8 7 10 7 8 17 14 15 17 13 17 21 12 10 7 14 16 13 16 7 6 2 2 5 6
19 21 24 25 25 27 28 29 31 31 25 9 2 2 10 11 9 6 5 4 1 1 5 5 6 8 7 9 10 9 13 5 17 20 9 10 2 10 9 17 19 13 7 5 2 3 4
18 20 23 26 26 27 27 29 31 32 26 8 3 1 14 8 4 3 5 2 1 2 1 2 4 5 5 7 6 7 8 6 14 18 11 10 3 5 5 2 12 18 13 7 4 6 5
16 18 21 24 26 26 27 29 31 31 24 5 2 3 7 7 4 4 2 0 2 3 3 4 3 3 5 5 6 5 7 6 11 13 13 8 7 6 3 3 13 11 20 13 3 3 8
16 17 19 23 26 27 27 28 30 29 20 4 3 2 2 4 2 3 2 3 3 2 3 3 4 6 10 4 3 6 9 5 11 11 14 3 4 5 5 2 6 13 16 16 9 4 4
13 15 17 20 24 27 26 27 28 27 17 5 5 3 2 4 4 3 0 1 4 3 3 2 3 4 4 4 6 4 6 10 5 11 9 5 6 5 6 6 6 9 13 11 11 8 4
12 14 16 18 21 24 26 26 27 26 13 7 3 3 0 1 1 4 2 2 3 3 3 2 4 9 2 4 4 6 4 2 3 9 7 7 4 6 3 6 6 7 11 9 6 7 2
11 12 14 16 18 21 22 23 28 28 16 7 5 3 2 2 1 3 1 2 3 2 5 4 5 5 6 8 8 11 11 11 12 7 6 6 6 5 4 8 5 6 6 7 7 4 8
10 12 13 14 15 17 18 19 21 24 23 8 5 3 2 2 2 3 2 3 7 6 4 2 2 3 1 6 10 5 7 9 8 8 6 5 4 1 4 6 3 2 2 6 7 7 5
10 11 12 12 14 13 15 14 15 18 18 13 8 4 2 4 3 5 6 6 6 4 4 4 4 3 9 5 3 4 4 4 5 5 5 4 3 3 3 5 3 2 1 4 4 2 1
12 11 12 12 12 11 11 11 10 13 14 7 9 7 2 3 1 2 4 1 4 4 3 4 1 2 2 2 2 3 3 4 1 2 3 2 2 3 2 3 3 3 3 1 2 3 2
19 17 12 12 12 10 8 9 8 9 12 8 3 8 2 3 1 1 3 3 1 2 4 1 1 1 1 2 2 2 2 1 3 3 2 3 3 5 4 4 5 5 6 5 3 3 2
21 19 17 13 12 11 9 8 7 7 10 8 6 2 2 2 6 4 3 3 2 3 3 2 3 2 2 2 2 1 3 1 3 4 3 3 2 2 1 3 5 10 7 4 2 2 3
22 21 18 16 13 13 11 8 7 6 6 9 4 5 5 5 4 5 8 9 9 3 2 2 3 2 2 2 2 1 4 2 3 4 3 4 4 2 5 3 2 12 3 3 1 3 5
Wind_Direction
33 30 27 25 23 22 22 23 21 17 12 8 7 7 7 9 9 14 23 20 8 17 2 350 327 318 305 301 359 332 323 318 318 328 311 305 294 286 272 260 317 266 258 255 233 272 242
30 28 25 23 23 21 21 20 19 16 15 10 8 7 8 10 4 21 35 20 4 337 13 6 20 58 8 12 342 339 336 321 317 316 303 286 269 271 283 271 266 292 325 284 251 237 266
28 25 23 20 19 19 20 17 15 13 10 9 9 5 7 8 16 47 84 34 39 49 19 13 35 6 42 8 342 335 332 322 315 300 287 277 267 253 251 274 278 268 299 290 245 269 225
30 25 22 17 15 15 16 13 9 6 5 4 5 3 6 10 2 23 129 93 50 24 334 13 15 30 28 347 343 344 334 327 323 307 270 268 254 252 245 259 277 283 292 272 226 228 229
30 26 23 18 13 11 11 9 5 7 10 8 2 1 3 7 358 348 270 215 349 4 329 296 19 328 26 342 353 344 344 328 332 320 289 247 233 211 211 226 253 232 266 272 238 215 220
26 25 24 19 15 9 6 5 4 7 11 12 5 0 358 7 6 355 354 208 276 348 15 143 16 346 356 352 337 355 350 342 329 323 104 186 214 224 221 222 245 250 254 300 258 210 228
22 22 22 21 18 11 6 3 2 4 4 5 9 4 359 349 11 4 28 186 222 191 42 49 2 359 352 346 342 3 354 348 340 11 19 83 237 292 330 325 272 293 295 299 295 306 272
19 17 18 18 17 12 8 5 2 359 3 7 8 10 2 350 13 33 35 44 37 353 161 38 19 5 357 351 348 5 359 5 354 18 13 104 30 357 319 298 286 284 270 272 285 262 303
15 14 14 15 15 11 7 4 2 359 359 4 6 10 8 30 20 30 53 36 350 8 276 28 32 24 354 342 359 4 3 340 5 10 1 42 3 329 327 288 255 251 257 267 260 334 189
16 13 13 13 14 13 9 6 2 359 358 2 7 9 19 25 52 353 41 341 323 348 263 9 7 18 349 350 0 6 11 348 13 336 346 29 348 349 341 243 300 251 250 255 254 261 303
18 12 10 11 12 11 11 7 3 359 353 355 3 8 19 44 8 11 316 314 298 248 13 344 345 328 336 23 346 354 16 357 359 343 319 2 344 356 357 350 329 285 331 299 248 221 282
17 15 9 11 10 8 9 7 3 359 352 349 352 4 23 3 1 347 323 261 234 257 16 334 330 342 341 9 13 352 13 21 328 335 25 344 12 30 356 308 150 330 299 262 231 181 236
17 15 10 9 10 8 6 6 4 359 354 342 349 2 17 11 336 334 325 227 273 43 345 336 328 333 338 355 5 6 12 24 22 348 351 357 37 10 10 354 8 340 244 199 160 185 224
18 16 11 8 9 7 5 4 2 359 355 339 327 3 4 1 342 346 263 130 58 354 313 322 323 320 10 10 354 359 9 19 26 9 320 352 15 11 0 10 313 303 332 337 185 157 142
19 15 12 8 9 6 4 3 1 360 356 346 319 323 5 349 8 345 267 42 22 338 326 318 314 352 355 8 340 357 10 18 13 10 1 348 356 359 14 17 9 331 28 333 288 252 138
21 18 15 8 9 6 4 3 0 1 356 355 321 290 14 353 23 335 56 93 123 303 319 319 356 360 335 344 354 6 4 17 358 360 350 350 306 18 17 9 20 35 329 47 320 193 182
19 17 15 10 11 8 5 3 0 359 359 1 324 245 355 5 31 50 50 65 303 325 328 322 335 309 329 338 330 339 356 355 6 346 1 350 268 328 13 27 10 8 18 357 251 11 328
16 14 15 12 13 9 6 4 2 359 4 23 315 309 347 354 41 45 42 354 353 335 242 307 288 308 311 314 320 325 342 345 356 350 352 358 307 308 46 39 38 29 11 359 344 11 15
14 13 13 14 13 13 10 8 4 1 6 352 8 351 350 338 37 44 113 59 269 299 325 338 301 347 323 299 321 328 326 319 353 3 2 328 4 329 146 204 16 18 13 5 295 281 14
10 11 8 13 12 12 15 11 7 2 6 30 329 334 77 63 52 15 358 19 339 206 282 303 289 296 324 294 218 299 314 327 349 2 358 308 341 356 59 31 333 8 13 13 16 32 16
4 8 4 10 13 11 14 16 11 7 7 37 9 48 28 347 50 47 243 260 323 348 218 240 236 280 333 300 316 288 330 326 331 1 13 39 349 356 296 299 277 355 14 25 35 6 20
354 360 359 4 11 11 12 19 21 15 18 57 7 343 58 337 299 290 152 229 297 317 220 198 236 329 215 231 248 300 340 292 324 330 0 6 334 339 259 347 268 270 21 5 22 5 331
341 351 352 357 6 9 12 16 22 30 43 55 34 31 330 122 241 291 5 283 276 328 213 249 287 312 208 238 266 277 271 267 276 302 318 340 337 348 335 353 298 248 4 347 328 354 328
328 337 343 348 356 5 10 17 16 26 41 53 28 344 326 299 266 254 224 248 263 248 268 288 221 227 36 294 283 258 244 247 249 252 250 302 305 291 301 297 326 52 329 317 286 273 306
305 319 328 334 342 355 4 10 12 18 28 51 33 11 346 286 306 268 256 256 290 254 247 254 226 247 323 299 295 290 198 213 206 220 203 234 282 313 321 306 329 250 0 340 339 329 241
284 292 306 316 325 333 352 1 2 4 14 39 40 30 16 301 236 331 301 280 301 294 231 224 196 322 295 282 286 326 329 327 314 218 143 186 252 279 320 301 276 93 124 137 145 250 138
290 284 281 297 307 310 324 344 350 353 359 10 29 21 352 291 249 239 285 322 309 285 271 256 354 258 234 317 289 308 298 4 295 284 261 257 233 265 271 269 272 136 142 149 277 35 309
288 293 278 275 287 290 299 319 338 344 343 357 318 6 31 272 275 226 224 203 200 229 270 35 272 177 238 262 272 14 266 35 277 258 248 257 287 250 253 255 267 151 136 216 75 189 259
280 292 294 273 270 278 282 294 319 335 334 322 267 308 285 208 277 236 249 253 248 262 317 190 321 289 330 246 215 291 250 207 301 290 193 256 231 278 220 274 81 184 265 148 198 266 243